EZY5 EGGP-LGKO

Flight info

Callsign EZY5
Flight time N/A
Altitude 35000
Route BARTN L975 DESIG L603 DOLAS DCT NAVPI DCT DODEN DCT NEGIX DCT DINKU DCT BESNI DCT LATLO DCT OBEDI/N0447F370 DCT BERTA DCT TEBLI DCT TIVNU DCT MEDUX UM867 KOGAT DCT ERANA UL737 TSL UN130 MES UN139 LURUS L995 KOPAR
Aircraft A320/M-SDE3FGHIRWY/LB1

Departure

Time N/A
Airport Liverpool John Lennon Airport (EGGP)

Arrival

Time 2026-04-28 17:49
Airport Kos International Airport "Ippokratis" (LGKO)
Time Latitude Longitude Altitude Speed Heading
2026-04-28 16:45 47.38285 13.24974 35075 ft 505 kts 139°
2026-04-28 16:46 47.28254 13.39682 35081 ft 505 kts 138°
2026-04-28 16:46 47.18450 13.54589 35057 ft 506 kts 137°
2026-04-28 16:47 47.08602 13.69310 35087 ft 506 kts 137°
2026-04-28 16:47 46.98687 13.84027 35070 ft 506 kts 138°
2026-04-28 16:48 46.88775 13.98710 35069 ft 507 kts 137°
2026-04-28 16:48 46.78860 14.13282 35069 ft 507 kts 138°
2026-04-28 16:49 46.68886 14.27859 35059 ft 507 kts 137°
2026-04-28 16:49 46.58944 14.42354 35088 ft 505 kts 138°
2026-04-28 16:50 46.45374 14.61936 35060 ft 505 kts 138°
2026-04-28 16:50 46.27109 14.92928 35089 ft 506 kts 133°
2026-04-28 16:51 46.08691 15.23709 35094 ft 504 kts 133°
2026-04-28 16:51 45.90296 15.54214 35065 ft 503 kts 133°
2026-04-28 16:52 45.71781 15.84568 35087 ft 501 kts 134°
2026-04-28 16:52 45.53331 16.14557 35079 ft 502 kts 134°
2026-04-28 16:53 45.34741 16.44374 35055 ft 501 kts 134°
2026-04-28 16:53 45.16132 16.74008 35071 ft 502 kts 133°
2026-04-28 16:54 44.97834 17.03761 35058 ft 500 kts 133°
2026-04-28 16:54 44.78201 17.31532 35066 ft 498 kts 137°
2026-04-28 16:55 44.58518 17.58990 35049 ft 498 kts 137°
2026-04-28 16:55 44.38824 17.86129 35054 ft 496 kts 137°
2026-04-28 16:56 44.19078 18.13074 35050 ft 494 kts 138°
2026-04-28 16:56 43.99354 18.39697 35007 ft 493 kts 137°
2026-04-28 16:57 43.79539 18.66196 35024 ft 494 kts 138°
2026-04-28 16:57 43.59688 18.92471 35004 ft 493 kts 138°
2026-04-28 16:58 43.39780 19.18586 35025 ft 492 kts 138°
2026-04-28 16:58 43.19946 19.44349 35016 ft 491 kts 138°
2026-04-28 16:59 43.00071 19.69945 35029 ft 492 kts 138°
2026-04-28 16:59 42.80076 19.95452 35040 ft 491 kts 138°
2026-04-28 17:00 42.61942 20.23335 35030 ft 491 kts 130°
2026-04-28 17:00 42.44509 20.51869 35043 ft 491 kts 130°
2026-04-28 17:01 42.27009 20.80252 35076 ft 491 kts 130°
2026-04-28 17:01 42.09178 21.08211 35015 ft 488 kts 138°
2026-04-28 17:02 41.98463 21.21794 35045 ft 489 kts 137°
2026-04-28 17:02 41.93523 21.28064 35051 ft 488 kts 137°
2026-04-28 17:03 41.86091 21.37438 35052 ft 488 kts 138°
2026-04-28 17:03 41.81125 21.43670 35040 ft 488 kts 138°
2026-04-28 17:04 41.73727 21.52950 35033 ft 488 kts 138°
2026-04-28 17:05 41.66287 21.62264 35028 ft 488 kts 138°
2026-04-28 17:06 41.58838 21.71546 35039 ft 488 kts 138°
2026-04-28 17:06 41.51388 21.80812 35048 ft 488 kts 138°
2026-04-28 17:07 41.46396 21.86979 35040 ft 487 kts 138°
2026-04-28 17:07 41.38948 21.96191 35052 ft 487 kts 138°
2026-04-28 17:08 41.29006 22.08425 35055 ft 486 kts 138°
2026-04-28 17:08 41.19063 22.20608 35053 ft 486 kts 138°
2026-04-28 17:09 41.08795 22.32280 35054 ft 486 kts 143°
2026-04-28 17:09 40.98176 22.43408 35056 ft 486 kts 142°
2026-04-28 17:10 40.87671 22.54706 35070 ft 485 kts 142°
2026-04-28 17:10 40.77159 22.65870 35078 ft 485 kts 142°
2026-04-28 17:11 40.66625 22.77039 35081 ft 485 kts 142°
2026-04-28 17:11 40.56103 22.88151 35081 ft 485 kts 142°
2026-04-28 17:12 40.45610 22.99266 35076 ft 485 kts 137°
2026-04-28 17:12 40.36343 23.12073 35097 ft 485 kts 134°
2026-04-28 17:13 40.26993 23.24913 35093 ft 486 kts 133°
2026-04-28 17:13 40.18129 23.37083 35077 ft 486 kts 134°
2026-04-28 17:14 40.08793 23.49839 35096 ft 485 kts 133°
2026-04-28 17:14 39.99453 23.62548 35099 ft 485 kts 133°
2026-04-28 17:15 39.90137 23.75178 35102 ft 485 kts 133°
2026-04-28 17:15 39.80783 23.87808 35101 ft 484 kts 133°
2026-04-28 17:16 39.71416 24.00388 35102 ft 484 kts 133°
2026-04-28 17:16 39.62042 24.12937 35102 ft 484 kts 133°
2026-04-28 17:17 39.52650 24.25444 35099 ft 483 kts 133°
2026-04-28 17:17 39.43297 24.37850 35099 ft 483 kts 133°
2026-04-28 17:18 39.33875 24.50308 35098 ft 483 kts 133°
2026-04-28 17:18 39.24521 24.62797 35095 ft 483 kts 133°
2026-04-28 17:19 39.15207 24.75214 35095 ft 483 kts 133°
2026-04-28 17:19 39.05800 24.87608 35087 ft 483 kts 134°
2026-04-28 17:20 38.97910 24.97805 35075 ft 484 kts 134°
2026-04-28 17:20 38.86801 25.12141 35077 ft 485 kts 134°
2026-04-28 17:21 38.77242 25.24435 35070 ft 485 kts 134°
2026-04-28 17:22 38.62982 25.42679 35064 ft 485 kts 134°
2026-04-28 17:22 38.55158 25.52631 35055 ft 485 kts 134°
2026-04-28 17:23 38.47989 25.61734 35051 ft 486 kts 134°
2026-04-28 17:23 38.43180 25.67817 35054 ft 486 kts 134°
2026-04-28 17:24 38.38373 25.73885 35053 ft 485 kts 134°
2026-04-28 17:24 38.33577 25.79949 35041 ft 485 kts 134°
2026-04-28 17:25 38.26243 25.88769 35035 ft 485 kts 144°
2026-04-28 17:26 38.20313 25.92798 35023 ft 484 kts 161°
2026-04-28 17:26 38.13966 25.95686 35024 ft 484 kts 161°
2026-04-28 17:27 38.07614 25.98584 35027 ft 484 kts 161°
2026-04-28 17:27 38.01266 26.01468 35023 ft 484 kts 161°
2026-04-28 17:28 37.94908 26.04349 35033 ft 484 kts 161°
2026-04-28 17:28 37.85388 26.08666 35029 ft 484 kts 161°
2026-04-28 17:29 37.79037 26.11536 35030 ft 485 kts 161°
2026-04-28 17:30 37.69540 26.15817 35015 ft 485 kts 161°
2026-04-28 17:30 37.60009 26.20100 35015 ft 485 kts 161°
2026-04-28 17:31 37.56835 26.21523 34892 ft 486 kts 161°
2026-04-28 17:31 37.50445 26.24377 33474 ft 493 kts 161°
2026-04-28 17:32 37.44075 26.27225 31408 ft 481 kts 160°
2026-04-28 17:32 37.40894 26.28648 30366 ft 487 kts 160°
2026-04-28 17:32 37.37679 26.30086 29109 ft 493 kts 160°
2026-04-28 17:32 37.34433 26.31537 27876 ft 497 kts 161°
2026-04-28 17:33 37.31150 26.33003 26612 ft 501 kts 161°
2026-04-28 17:33 37.27848 26.34468 25433 ft 503 kts 161°
2026-04-28 17:33 37.24553 26.35922 24462 ft 500 kts 161°
2026-04-28 17:33 37.23490 26.36390 24158 ft 498 kts 161°
2026-04-28 17:34 37.18127 26.38765 21747 ft 479 kts 161°
2026-04-28 17:34 37.15031 26.40145 20974 ft 468 kts 161°
2026-04-28 17:34 37.11975 26.41507 20120 ft 466 kts 161°
2026-04-28 17:34 37.08970 26.42844 19277 ft 463 kts 161°
2026-04-28 17:35 37.05939 26.44187 18466 ft 461 kts 161°
2026-04-28 17:35 37.02918 26.45523 17574 ft 455 kts 161°
2026-04-28 17:35 37.00003 26.46813 16835 ft 436 kts 162°
2026-04-28 17:35 36.97151 26.48073 16083 ft 433 kts 161°
2026-04-28 17:36 36.94337 26.49353 15373 ft 429 kts 158°
2026-04-28 17:36 36.92574 26.50457 14918 ft 428 kts 150°
2026-04-28 17:36 36.90171 26.52629 14239 ft 426 kts 139°
2026-04-28 17:36 36.88161 26.55333 13535 ft 424 kts 128°
2026-04-28 17:37 36.86624 26.58447 12847 ft 420 kts 116°
2026-04-28 17:37 36.85471 26.61775 12196 ft 414 kts 113°
2026-04-28 17:37 36.84350 26.65062 11529 ft 409 kts 113°
2026-04-28 17:37 36.83101 26.68223 11113 ft 398 kts 122°
2026-04-28 17:38 36.81506 26.70944 10999 ft 380 kts 131°
2026-04-28 17:38 36.79775 26.73335 10857 ft 363 kts 132°
2026-04-28 17:38 36.78142 26.75590 10738 ft 336 kts 132°
2026-04-28 17:38 36.76648 26.77655 10499 ft 316 kts 132°
2026-04-28 17:39 36.75183 26.79675 10204 ft 311 kts 132°
2026-04-28 17:39 36.73739 26.81659 9969 ft 309 kts 132°
2026-04-28 17:39 36.70853 26.85612 9685 ft 305 kts 132°
2026-04-28 17:40 36.69492 26.87639 9546 ft 304 kts 124°
2026-04-28 17:40 36.68482 26.89925 9266 ft 302 kts 116°
2026-04-28 17:40 36.67541 26.92293 8740 ft 306 kts 116°
2026-04-28 17:40 36.66602 26.94657 8284 ft 306 kts 115°
2026-04-28 17:41 36.65664 26.97016 7961 ft 300 kts 115°
2026-04-28 17:41 36.64746 26.99319 7328 ft 296 kts 116°
2026-04-28 17:41 36.63915 27.01395 6780 ft 292 kts 115°
2026-04-28 17:41 36.63012 27.03643 6216 ft 286 kts 115°
2026-04-28 17:42 36.62148 27.05787 6023 ft 266 kts 115°
2026-04-28 17:42 36.61339 27.07796 5900 ft 254 kts 115°
2026-04-28 17:42 36.60560 27.09728 5797 ft 245 kts 115°
2026-04-28 17:42 36.59860 27.11610 5679 ft 234 kts 105°
2026-04-28 17:43 36.59653 27.13559 5574 ft 223 kts 85°
2026-04-28 17:43 36.59987 27.15448 5178 ft 224 kts 63°
2026-04-28 17:43 36.60564 27.17250 4875 ft 225 kts 65°
2026-04-28 17:43 36.61140 27.19068 4552 ft 227 kts 63°
2026-04-28 17:44 36.62074 27.20540 4293 ft 206 kts 30°
2026-04-28 17:44 36.63341 27.21060 3957 ft 185 kts 359°
2026-04-28 17:44 36.64545 27.20720 3682 ft 174 kts 331°
2026-04-28 17:44 36.65534 27.19948 3442 ft 163 kts 328°
2026-04-28 17:45 36.66459 27.19219 3202 ft 155 kts 328°
2026-04-28 17:45 36.67358 27.18515 2982 ft 148 kts 329°
2026-04-28 17:45 36.68211 27.17848 2779 ft 143 kts 329°
2026-04-28 17:45 36.69045 27.17195 2570 ft 142 kts 332°
2026-04-28 17:46 36.69909 27.16523 2372 ft 149 kts 331°
2026-04-28 17:46 36.70795 27.15836 2166 ft 149 kts 330°
2026-04-28 17:46 36.71664 27.15162 1992 ft 140 kts 330°
2026-04-28 17:46 36.72474 27.14530 1799 ft 134 kts 330°
2026-04-28 17:47 36.73259 27.13922 1623 ft 132 kts 329°
2026-04-28 17:47 36.74039 27.13320 1440 ft 131 kts 329°
2026-04-28 17:47 36.74811 27.12722 1267 ft 131 kts 328°
2026-04-28 17:47 36.75327 27.12321 1144 ft 132 kts 328°
2026-04-28 17:48 36.76362 27.11521 919 ft 131 kts 328°
2026-04-28 17:48 36.77132 27.10917 745 ft 133 kts 327°
2026-04-28 17:48 36.77909 27.10317 585 ft 131 kts 329°
2026-04-28 17:48 36.78692 27.09713 412 ft 132 kts 328°
2026-04-28 17:49 36.79392 27.09167 405 ft 97 kts 328°
2026-04-28 17:49 36.79721 27.08914 410 ft 12 kts 329°
2026-04-28 17:49 36.79741 27.08942 409 ft 6 kts 109°